Regional Weather Roundup
Issued by NWS Green Bay, WI

Home | Current Version | Previous Version | Graphics & Text | Print | Product List | Glossary Off
Versions: 1 2 3 4 5 6 7 8 9 10 11 12 13 14 15 16 17 18 19 20 21 22 23 24 25 26 27 28 29 30 31 32 33 34 35 36 37 38 39 40 41 42 43 44 45 46 47 48 49 50

000
ASUS43 KGRB 180259
RWRGRB

NORTH-CENTRAL AND NORTHEAST WISCONSIN REGIONAL WEATHER ROUNDUP
NATIONAL WEATHER SERVICE GREEN BAY WI
900 PM CST WED DEC 17 2014

WIZ005-009-010>012-018-019-180400-
NORTH CENTRAL WISCONSIN

CITY           SKY/WX    TMP DP  RH WIND       PRES   REMARKS
IRONWOOD       CLOUDY    21  19  93 NE3       30.23S
MANITOWISH WTR NOT AVBL
ARBOR VITAE    NOT AVBL
EAGLE RIVER    NOT AVBL
LAND O LAKES   NOT AVBL
RHINELANDER    CLOUDY    20  17  88 N9        30.20R WCI   9
PHILLIPS       NOT AVBL
ANTIGO         NOT AVBL
TOMAHAWK       NOT AVBL
MERRILL        NOT AVBL
$$

WIZ013-073-180400-
NORTHEAST WISCONSIN

CITY           SKY/WX    TMP DP  RH WIND       PRES   REMARKS
IRON MOUNTAIN  CLOUDY    24  20  84 N10       30.18S
MARINETTE      CLOUDY    27  19  74 N8        30.20R
$$

WIZ017-030-035>037-045-180400-
CENTRAL WISCONSIN

CITY           SKY/WX    TMP DP  RH WIND       PRES   REMARKS
MEDFORD        NOT AVBL
WAUSAU         CLOUDY    23  18  81 N8        30.20F
MOSINEE        CLOUDY    21  19  93 N12       30.22S WCI   9
MARSHFIELD     CLOUDY    20  14  77 W6        30.23R
WISC RAPIDS    CLOUDY    19  12  74 W6        30.26S
STEVENS POINT  NOT AVBL
WAUPACA        NOT AVBL
SHAWANO        NOT AVBL
CLINTONVILLE   NOT AVBL
$$

WIZ038-039-048-051-180400-
FOX VALLEY

CITY           SKY/WX    TMP DP  RH WIND       PRES   REMARKS
NWS GREEN BAY  CLOUDY    27  20  75 NW8       30.21S
APPLETON       CLOUDY    21  16  79 W12       30.22S WCI   9
OSHKOSH        CLOUDY    21  14  74 W7        30.23S
FOND DU LAC    CLOUDY    21  13  71 W9        30.24R
$$

WIZ022-050-052-180400-
EAST CENTRAL WISCONSIN

CITY           SKY/WX    TMP DP  RH WIND       PRES   REMARKS
STURGEON BAY   CLOUDY    27  19  74 NW15G21   30.20S
MANITOWOC      NOT AVBL
SHEBOYGAN      PTCLDY    21  14  74 W9        30.22R
$$

LMZ563-521-522-541>543-180400-
LAKESHORE

STATION/POSITION TIME  TEMP    WIND        PRES    VSBY  WAVE
                       AIR SEA DIR/SP/G                  HT/PER
                 (UTC) (F)     (DEG/KT/KT) (MB)    (MI)  (FT/S)
SHEBOYGAN LKSHOR 0200   23 34  290/ 12/ 15 1024.3R
KEWAUNEE LKSHORE 0200   27     320/  7/ 11 1021.7R
ALGOMA MARINA    0200          340/ 10/ 12   N/A
NORTHPORT PIER   0200   30     330/ 16/ 21 1021.7R
SISTER BAY LKSHO 0200          350/ 21/ 23   N/A
CHAMBERS ISLAND  0200   28     310/ 10/ 16 1022.4R
MENOMINEE LKSHOR 0200   27     300/  8/ 12 1023.2R
$$



USA.gov is the U.S. government's official web portal to all federal, state and local government web resources and services.